Weather History for KCGI - July, 2013

Change the Weather History Date:

Tuesday, July 23, 2013

  Actual Average Record
Temperature  
Mean Temperature 81 °F 79 °F  
Max Temperature 92 °F 89 °F 103 °F (1983)
Min Temperature 70 °F 68 °F 54 °F (2007)
Degree Days  
Heating Degree Days 0 0  
Month to date heating degree days 0 0  
Since 1 June heating degree days 0 4  
Since 1 July heating degree days 0 0  
Cooling Degree Days 16 14  
Month to date cooling degree days 289 319  
Year to date cooling degree days 793 783  
Since 1 June cooling degree days 622 631  
Growing Degree Days 31 (Base 50)    
Moisture  
Dew Point 70 °F    
Average Humidity 71    
Maximum Humidity 93    
Minimum Humidity 49    
Precipitation  
Precipitation 0.02 in 0.11 in 2.24 in (1971)
Month to date precipitation 0.25 2.50  
Year to date precipitation 24.18 27.17  
Sea Level Pressure  
Sea Level Pressure 29.84 in    
Wind  
Wind Speed 8 mph (WSW)    
Max Wind Speed 22 mph    
Max Gust Speed 29 mph    
Visibility 10 miles    
Events Rain , Thunderstorm    
T = Trace of Precipitation, MM = Missing Value Source: NWS Daily Summary

Daily Weather History Graph

Daily Weather History Graph

Search for Another Location

Airport or City:

Trip Planner

Search our weather history database for the weather conditions in past years. The results will help you decide how hot, cold, wet, or windy it might be!

Date:

Astronomy

Jul. 23, 2013 Rise Set
Actual Time 5:55 AM CDT 8:13 PM CDT
Civil Twilight 5:26 AM CDT 8:42 PM CDT
Nautical Twilight 4:50 AM CDT 9:18 PM CDT
Astronomical Twilight 4:10 AM CDT 9:58 PM CDT
Moon 8:45 PM CDT (7/23) 7:01 AM CDT (7/23)
Length of Visible Light 15h 16m
Length of Day
14h 17m
Full, 99% of the Moon is Illuminated
Jul 23
Full
Jul 29
Last Quarter
Aug 6
New
Aug 14
First Quarter
Aug 20
Full

Hourly Weather History & Observations

Time (CDT) Temp. Heat Index Dew Point Humidity Pressure Visibility Wind Dir Wind Speed Gust Speed Precip Events Conditions
12:53 AM 78.1 °F - 72.0 °F 81% 29.86 in 10.0 mi SW 4.6 mph - N/A   Scattered Clouds
1:53 AM 77.0 °F - 72.0 °F 84% 29.85 in 10.0 mi SSW 5.8 mph - N/A   Clear
2:53 AM 75.9 °F - 71.1 °F 85% 29.84 in 10.0 mi Calm Calm - N/A   Partly Cloudy
3:53 AM 75.0 °F - 72.0 °F 90% 29.85 in 10.0 mi West 3.5 mph - N/A   Mostly Cloudy
4:53 AM 73.9 °F - 71.1 °F 91% 29.81 in 10.0 mi Calm Calm - N/A   Clear
5:53 AM 73.9 °F - 72.0 °F 93% 29.81 in 10.0 mi SSW 5.8 mph - N/A   Clear
6:53 AM 75.0 °F - 72.0 °F 90% 29.83 in 10.0 mi SSW 9.2 mph - N/A   Clear
7:53 AM 75.0 °F - 69.1 °F 82% 29.84 in 10.0 mi WSW 6.9 mph - N/A   Clear
8:53 AM 75.0 °F - 69.1 °F 82% 29.89 in 10.0 mi SSW 12.7 mph - N/A   Clear
9:53 AM 79.0 °F - 68.0 °F 69% 29.88 in 10.0 mi SW 16.1 mph 23.0 mph N/A   Clear
10:53 AM 80.1 °F 82.7 °F 68.0 °F 67% 29.88 in 10.0 mi SW 12.7 mph - N/A   Clear
11:53 AM 82.9 °F 85.8 °F 68.0 °F 60% 29.86 in 10.0 mi WSW 8.1 mph - N/A   Partly Cloudy
12:53 PM 86.0 °F 90.1 °F 69.1 °F 57% 29.83 in 10.0 mi West 10.4 mph - N/A   Scattered Clouds
1:53 PM 90.0 °F 93.6 °F 68.0 °F 48% 29.82 in 10.0 mi West 13.8 mph - N/A   Clear
2:53 PM 91.0 °F 96.6 °F 70.0 °F 50% 29.82 in 10.0 mi West 12.7 mph - N/A   Clear
3:53 PM 91.0 °F 96.6 °F 70.0 °F 50% 29.80 in 10.0 mi WNW 8.1 mph - N/A   Clear
4:53 PM 90.0 °F 96.9 °F 72.0 °F 55% 29.78 in 10.0 mi WSW 5.8 mph - N/A   Clear
5:53 PM 88.0 °F 96.5 °F 73.9 °F 63% 29.77 in 10.0 mi SW 9.2 mph - N/A   Clear
6:53 PM 84.9 °F 91.4 °F 73.0 °F 67% 29.80 in 10.0 mi SSW 8.1 mph - N/A   Partly Cloudy
7:07 PM 84.2 °F 90.9 °F 73.4 °F 70% 29.81 in 10.0 mi SW 11.5 mph - N/A Thunderstorm Clear
7:53 PM 82.9 °F 88.0 °F 72.0 °F 69% 29.84 in 10.0 mi West 8.1 mph - N/A Thunderstorm Thunderstorm
8:35 PM 71.6 °F - 68.0 °F 88% 29.89 in 8.0 mi West 17.3 mph 28.8 mph 0.01 in Rain , Thunderstorm Light Thunderstorms and Rain
8:41 PM 71.6 °F - 66.2 °F 83% 29.89 in 10.0 mi West 12.7 mph - 0.01 in Rain , Thunderstorm Light Thunderstorms and Rain
8:53 PM 71.1 °F - 68.0 °F 90% 29.88 in 10.0 mi SW 3.5 mph - 0.01 in Rain , Thunderstorm Light Thunderstorms and Rain
9:14 PM 71.6 °F - 69.8 °F 94% 29.89 in 9.0 mi South 3.5 mph - 0.00 in Rain Rain
9:53 PM 71.1 °F - 68.0 °F 90% 29.85 in 10.0 mi WSW 4.6 mph - 0.01 in   Partly Cloudy
10:53 PM 71.1 °F - 69.1 °F 93% 29.87 in 10.0 mi NW 4.6 mph - N/A   Clear
11:53 PM 71.1 °F - 69.1 °F 93% 29.87 in 10.0 mi East 4.6 mph - N/A   Clear